Find Starlink 31557

NORAD ID: 59357 Int'l Des: 2024-060 Owner: SPXS Country: US Constellation: starlink operational
LEOCIRCULAR

Live Position

Loading 3D Globe...

About Starlink 31557

Description loading...

Upcoming Passes

Passes for default location (London). Set your location on the main map for personalized predictions.

Altitude History

Loading altitude history...

Two-Line Element Set

1 59357U 24060K 26126.45101080 .00000372 00000-0 23035-4 0 9996
2 59357 43.0004 289.5546 0001381 230.0552 130.0178 15.27566033118942
Epoch: May 6, 2026 • Age: 19 hours

Current Status

Altitude 487.0 km
Velocity 7.63 km/s
Sub-Earth Point 43.01°N, 53.58°E
Launch Date Mar 31, 2024
Age 2 years
Type internet

Technical Details

Classification Payload
Mass 730.00 kg
Dry Mass 700.00 kg
Total Mass 730.00 kg
Length 0.30 m
Diameter 4.10 m
Span 29.00 m
Shape Box + pan
Manufacturer SPXS
Bus Type Starlink V2M
Phase Status In Orbit
Owner/State SPXS/US

Most Searched